Location: Grantsboro
(35.1404°N, 76.8424°W)
Time: 20:46:16
(UTC+00:00)

Cosmos 1825 Rocket - Pass Details

Date: 18 January 2020
Orbit: 604 x 630 km, 82.5° (Epoch: 25 February)

Event Time Altitude Azimuth Distance (km) Brightness Sun altitude
Rises 10:53:22 0° 357° (N) 2,864 6.8 -16.5°
Reaches altitude 10° 10:55:36 10° 1° (N) 1,957 6.0 -16.0°
Maximum altitude 10:59:53 60° 82° (E) 694 4.1 -15.2°
Drops below altitude 10° 11:04:09 10° 163° (SSE) 1,952 6.6 -14.3°
Sets 11:06:23 0° 166° (SSE) 2,855 7.4 -13.9°
